sat.trackr.live / text

‹ back to catalog

STARLINK-34511

NORAD 65214 · 2025-176S

PAYLOAD ACTIVE UNKNOWN

§ Identity

Operator
Country
US
Launch date
2025-08-14
Launch site
AFETR
Launch vehicle
Mass (kg)
RCS (m²)

Purposes: comms

External: N2YO · Heavens-Above · Gunter

§ Orbital elements

Epoch: 2026-05-24T18:17:06.800064Z

Period
93.85 min
Inclination
53.1596°
Eccentricity
0.0001259
Mean motion
15.34416690 rev/d
Perigee alt
461.8 km
Apogee alt
463.5 km
Semi-major
6,840.8 km
B*
6.3983e-4
RAAN
158.9457°
Arg perigee
80.3949°
Mean anomaly
279.7196°
Rev number
4,471

§ Raw data

STARLINK-345111 65214U 25176S   26144.76188426  .00021314  00000+0  63983-3 0  99902 65214  53.1596 158.9457 0001259  80.3949 279.7196 15.34416690 44714

JSON: /api/v1/satellites/65214 · /tle

For live sub-satellite position, see the globe view (requires WebGL).

§ Visibility from observer

Set your observer location to see the next 7 days of passes ≥ 10°. The values pass through the URL so the page stays shareable.

No JS? Fill the form by hand. The geolocation button needs JavaScript.